Hourly Data Report for October 22, 2015

All times are specified in Local Standard Time (LST). Add 1 hour to adjust for Daylight Saving Time where and when it is observed.

PETAWAWA AWOS 2
ONTARIO

45°57'00.000" N
77°19'00.000" W
130.10 m
6106396
71625
YWA

Download Data

Hourly Data (October 2015)
Hourly Data Report for October 22, 2015
Temp Definition
°C
Dew Point Temp Definition
°C
Rel Hum Definition
%
Wind Dir Definition
10's deg

Wind Spd Definition
km/h
Visibility Definition
km
Stn Press Definition
kPa
Hmdx Definition


Wind Chill Definition


Weather Definition


TIME
00:00 6.0 4.9 93 14 19 4.8 99.97     Moderate Rain
01:00 6.7 5.6 93 15 15 14.5 99.81     Drizzle
02:00 6.6 5.6 93 14 19 14.5 99.70     Drizzle
03:00 6.9 6.1 95 13 15 14.5 99.61     Drizzle
04:00 7.2 6.7 97 14 15 14.5 99.55     Drizzle
05:00 8.3 7.8 97 14 9 12.9 99.54     LegendNANA
06:00 7.3 6.9 97 20 6 8.0 99.54     LegendNANA
07:00 10.8 9.4 91 27 9 14.5 99.62     LegendNANA
08:00 11.0 9.0 88 28 7 14.5 99.76     LegendNANA
09:00 11.4 7.3 76 29 17 14.5 99.82     LegendNANA
10:00 11.9 5.4 64 30 24 14.5 99.87     LegendNANA
11:00 11.8 2.7 54 29 28 14.5 99.94     LegendNANA
12:00 11.8 2.3 52 30 19 14.5 99.97     LegendNANA
13:00 11.8 1.6 50 28 24 14.5 99.99     LegendNANA
14:00 11.6 0.7 47 28 32 14.5 100.05     LegendNANA
15:00 11.1 2.5 55 28 15 14.5 100.10     LegendNANA
16:00 7.9 2.3 68 32 15 14.5 100.28     Drizzle
17:00 6.8 -0.1 61 32 26 14.5 100.43     LegendNANA
18:00 4.8 -4.1 52 32 20 14.5 100.61     LegendNANA
19:00 5.1 -4.8 49 32 26 14.5 100.71     Snow
20:00 4.9 -4.2 52 32 24 14.5 100.79     Snow
21:00 4.6 -3.9 54 32 19 14.5 100.82     LegendNANA
22:00 4.3 -3.4 57 31 20 14.5 100.89     LegendNANA
23:00 4.0 -2.9 61 32 15 14.5 100.92     LegendNANA

Notes on Data Quality.

Legend

  • E = Estimated
  • M = Missing
  • NA = Not Available
  • ‡ = Partner data that is not subject to review by the National Climate Archives
Date modified: